Flag for Germany Weather past 2 weeks in Springe, Lower Saxony, Germany

Now
52 °F

Cool.


Feels Like: 49 °F
Forecast: 48 / 60 °F
Wind: 8 mph from Northwest

Location: Wunstorf Airport

Current Time: Sep 23, 2014 at 3:22:52 AM

Latest Report: Sep 23, 2014 at 2:20 AM


Visibility: N/A

Pressure: 30.09 "Hg

Humidity: 82%

Dew point: 46 °F

Location of SpringeLocation

Historic Weather in Springe — Graph

°F

Springe temperature yesterday

Maximum temperature yesterday: 59 °F (at 3:20 PM)
Minimum temperature yesterday: 50 °F (at 10:20 AM)
Average temperature yesterday: 55 °F

Past Weeks' High & Low Weather Summary

 TemperatureHumidityPressure
High77 °F (Sep 18, 3:20 PM)100% (Sep 8, 1:20 AM)30.21 "Hg (Sep 8, 1:20 AM)
Low48 °F (Sep 12, 4:20 AM)46% (Sep 21, 4:20 PM)29.86 "Hg (Sep 19, 6:20 AM)
Average61 °F83%30.03 "Hg
* Reported Sep 8 1:20 AM — Sep 23 1:20 AM, Springe, Weather by CustomWeather, © 2014

Note: Actual official high and low records may vary slightly from our data, if they occured in-between our weather recording intervals... More about our weather records

Advertising

Springe weather history for previous 24 hours

 ConditionsComfort  
Time TempWeatherWind HumidityBarometerVisibility
1:20 AM
Sep 23
54 °FCool.8 mph77%30.09 "HgN/A
12:20 AM54 °FPassing clouds.9 mph77%30.09 "HgN/A
11:20 PM
Sep 22
54 °FPassing clouds.9 mph77%30.09 "HgN/A
10:20 PM55 °FPassing clouds.10 mph67%30.07 "HgN/A
9:20 PM55 °FPassing clouds.13 mph67%30.07 "HgN/A
8:20 PM55 °FPartly sunny.14 mph67%30.07 "HgN/A
7:20 PM57 °FPartly sunny.14 mph59%30.04 "HgN/A
6:20 PM57 °FBroken clouds.18 mph59%30.01 "HgN/A
5:20 PM59 °FScattered clouds.18 mph55%30.01 "HgN/A
4:20 PM59 °FScattered clouds.16 mph48%30.01 "HgN/A
3:20 PM59 °FScattered clouds.17 mph48%29.98 "HgN/A
2:20 PM57 °FScattered clouds.17 mph67%29.98 "HgN/A
1:20 PM55 °FScattered clouds.12 mph72%29.98 "HgN/A
12:20 PM54 °FPassing clouds.16 mph77%29.95 "HgN/A
11:20 AM50 °FPartly sunny.10 mph82%29.95 "HgN/A
10:20 AM50 °FRain. Fog.20 mph94%29.95 "Hg3 mi
9:59 AM52 °FLight rain. Partly sunny.17 mph88%29.95 "Hg4 mi
8:20 AM54 °FPartly sunny.17 mph77%29.95 "HgN/A
7:20 AM54 °FPassing clouds.18 mph82%29.95 "HgN/A
6:20 AM54 °FPassing clouds.16 mph82%29.95 "HgN/A
5:20 AM55 °FPartly cloudy.18 mph77%29.95 "HgN/A
4:20 AM55 °FCool.13 mph82%29.95 "Hg5 mi
3:20 AM54 °FCool.14 mph88%29.98 "Hg5 mi
Weather by CustomWeather, © 2014

See weather overviewHow to use our weather pages